Hundvaag 1 weather for Jan 1990
Month no. 31
Obs.
Da.
Temp. Dew Point Precip. Wind
Speed
Wind gusts Cloud cover Press. Humidity Wind dir. Sunny OPT
01.01.1990 0,9   0,0                
02.01.1990 2,6   0,0                
03.01.1990 3,0   0,1                
04.01.1990 1,4   0,0                
05.01.1990 1,8   0,0                
06.01.1990 5,3   2,6                
07.01.1990 4,3   0,0             1  
08.01.1990 4,8   26,0                
09.01.1990 6,2   4,1                
10.01.1990 4,9   5,5                
11.01.1990 7,0   12,0                
12.01.1990 6,8   2,5                
13.01.1990 5,1   0,1                
14.01.1990 7,0   28,3                
15.01.1990 6,0   14,0                
16.01.1990 6,2   4,6                
17.01.1990 4,8   11,0                
18.01.1990 4,5   3,0                
19.01.1990 3,6   19,9                
20.01.1990 6,8   4,9                
21.01.1990 7,9   4,2                
22.01.1990 6,8   2,8                
23.01.1990 6,8   4,4                
24.01.1990 2,3   18,4                
25.01.1990 2,1   1,1                
26.01.1990 3,1   0,1                
27.01.1990 1,1   7,4             1  
28.01.1990 3,1   0,4                
29.01.1990 3,9   1,6                
30.01.1990 4,0   12,9                
31.01.1990 7,2   10,5                
Avrg/Sum 4,6   202,4             2